TimePDT,TemperatureF,Dew PointF,Humidity,Sea Level PressureIn,VisibilityMPH,Wind Direction,Wind SpeedMPH,Gust SpeedMPH,PrecipitationIn,Events,Conditions,WindDirDegrees,DateUTC
12:53 AM,28.0,24.1,85,30.04,10.0,South,4.6,-,N/A,,Partly Cloudy,180,2014-04-03 07:53:00
1:53 AM,28.0,21.9,78,30.02,10.0,SSW,3.5,-,N/A,,Clear,210,2014-04-03 08:53:00
2:53 AM,27.0,21.0,78,30.02,10.0,South,5.8,-,N/A,,Clear,170,2014-04-03 09:53:00
3:53 AM,25.0,19.9,81,30.02,10.0,Calm,Calm,-,N/A,,Clear,0,2014-04-03 10:53:00
4:53 AM,24.1,18.0,77,30.03,10.0,SSW,3.5,-,N/A,,Clear,210,2014-04-03 11:53:00
5:53 AM,24.1,17.1,75,30.04,10.0,SSW,3.5,-,N/A,,Clear,200,2014-04-03 12:53:00
6:53 AM,24.1,17.1,75,30.06,10.0,SSW,4.6,-,N/A,,Clear,210,2014-04-03 13:53:00
7:53 AM,26.1,18.0,71,30.07,10.0,South,4.6,-,N/A,,Clear,180,2014-04-03 14:53:00
8:53 AM,30.0,21.0,69,30.07,10.0,South,3.5,-,N/A,,Clear,170,2014-04-03 15:53:00
9:53 AM,37.0,21.0,52,30.03,10.0,Calm,Calm,-,N/A,,Clear,0,2014-04-03 16:53:00
10:53 AM,41.0,19.9,43,30.03,10.0,Variable,3.5,-,N/A,,Clear,0,2014-04-03 17:53:00
11:53 AM,45.0,16.0,31,30.01,10.0,Variable,3.5,-,N/A,,Clear,0,2014-04-03 18:53:00
12:53 PM,45.0,19.0,36,30.01,10.0,SSW,10.4,17.3,N/A,,Clear,210,2014-04-03 19:53:00
1:53 PM,44.1,19.0,37,30.02,10.0,SSW,12.7,16.1,N/A,,Clear,200,2014-04-03 20:53:00
2:53 PM,45.0,19.9,37,30.00,10.0,SSW,9.2,17.3,N/A,,Scattered Clouds,210,2014-04-03 21:53:00
3:53 PM,44.1,19.9,38,30.00,10.0,SSW,9.2,19.6,N/A,,Partly Cloudy,210,2014-04-03 22:53:00
4:53 PM,44.1,21.0,40,30.00,10.0,Variable,6.9,-,N/A,,Clear,0,2014-04-03 23:53:00
5:53 PM,-9999,-9999,N/A,30.01,-9999.0,North,-9999.0,-,N/A,,Unknown,0,2014-04-04 00:53:00
6:53 PM,-9999,-9999,N/A,30.00,-9999.0,North,-9999.0,-,N/A,,Unknown,0,2014-04-04 01:53:00
8:53 PM,-9999,-9999,N/A,30.02,-9999.0,North,-9999.0,-,N/A,,Unknown,0,2014-04-04 03:53:00
9:53 PM,-9999,-9999,N/A,30.01,-9999.0,North,-9999.0,-,N/A,,Unknown,0,2014-04-04 04:53:00
10:53 PM,-9999,-9999,N/A,30.00,-9999.0,North,-9999.0,-,N/A,,Unknown,0,2014-04-04 05:53:00
11:53 PM,-9999,-9999,N/A,30.00,-9999.0,North,-9999.0,-,N/A,,Unknown,0,2014-04-04 06:53:00